Weather Service Report


610 
ASUS45 KBOI 300010
RWRID 

IDAHO REGIONAL WEATHER ROUNDUP
NATIONAL WEATHER SERVICE BOISE ID
600 PM MDT FRI APR 29 2016

NOTE: "FAIR" INDICATES FEW OR NO CLOUDS BELOW 12000 FEET
WITH NO SIGNIFICANT WEATHER AND/OR OBSTRUCTIONS TO VISIBILITY

IDZ012-014-300100-
SOUTHWEST IDAHO

  
CITY           SKY/WX    TMP DP  RH WIND       PRES   REMARKS
BOISE          MOSUNNY   61  37  41 NW24G31   29.85R                  
CALDWELL       CLOUDY    58  39  49 NW14G24   29.89R                  
MOUNTAIN HOME  MOSUNNY   62  36  38 NW28      29.81F                  
$$

IDZ016-017-300100-
SOUTHCENTRAL IDAHO

  
CITY           SKY/WX    TMP DP  RH WIND       PRES   REMARKS
BURLEY         LGT RAIN  49  42  77 NE6       29.82F                  
JEROME         PTSUNNY   60  32  34 SW21G26   29.80F                  
TWIN FALLS     MOSUNNY   57  35  43 W18       29.82S                  
$$

IDZ019>023-300100-
SOUTHEAST IDAHO

  
CITY           SKY/WX    TMP DP  RH WIND       PRES   REMARKS
IDAHO FALLS    PTSUNNY   51  36  56 S9        29.83F                  
POCATELLO      PTSUNNY   50  39  66 SW6       29.84S                  
REXBURG        SUNNY     47  37  68 SW10      29.83S                  
$$

IDZ006-010-011-018-031-032-300100-
CENTRAL IDAHO MOUNTAINS

  
CITY           SKY/WX    TMP DP  RH WIND       PRES   REMARKS
MCCALL         CLOUDY    46  35  65 N12G21    29.90R                  
HAILEY         PTSUNNY   45  39  81 SE5       29.85S                  
STANLEY          N/A     45  30  55 N14G24    29.86R                  
SALMON         CLOUDY    52  34  50 N10       29.85R                  
CHALLIS        PTSUNNY   50  34  54 NW6       29.82S                  
$$

IDZ002-004-006-007-026-300100-
NORTHERN IDAHO

  
CITY           SKY/WX    TMP DP  RH WIND       PRES   REMARKS
LEWISTON       LGT RAIN  51  43  74 CALM      29.98R                  
LOWELL           N/A     50  47  89 CALM      29.98R                  
COEUR D'ALENE  CLOUDY    54  36  50 CALM      29.93R                  
MULLAN PASS    CLOUDY    39  27  62 CALM      29.93R                  
$$
  

Return to Home page


Western Regional Climate Center, wrcc@dri.edu